Simultaneous Nadir Overpasses (SNOs) Predictions

Prediction of SNOs between LANDSAT-8 and NOAA-19 Satellite Orbit:

Table of predicted SNOs for the next 14.0 days since TLE Epoch: 3/23/2019
Index Date (LANDSAT-8) Time (LANDSAT-8) Lat,Lon (LANDSAT-8) SZA (LANDSAT-8 ) Date (NOAA-19) Time (NOAA-19) Lat,Lon (NOAA-19) SZA (NOAA-19 ) Distance(km) Time Diff (sec)
1 03/23/2019 15:21:52 78.75, -31.41 78.14 03/23/2019 15:20:44 78.84, -33.90 78.07 54.75 68
2 03/23/2019 16:11:24 -78.56, 135.18 102.13 03/23/2019 16:11:36 -78.57, 135.30 102.10 3.16 12
3 03/25/2019 21:45:07 78.57,-128.18 77.03 03/25/2019 21:45:05 78.59,-128.08 77.05 2.86 2
4 03/28/2019 03:18:51 -78.62, -31.37 103.78 03/28/2019 03:18:32 -78.61, -31.50 103.80 3.20 19
5 03/28/2019 04:08:18 78.56, 135.97 76.14 03/28/2019 04:09:31 78.50, 136.49 76.13 13.45 73
6 03/30/2019 08:52:35 78.60, 65.09 75.34 03/30/2019 08:52:02 78.62, 65.12 75.36 2.40 33
7 03/30/2019 09:42:03 -78.58,-127.39 104.71 03/30/2019 09:42:59 -78.58,-127.31 104.69 1.80 56
8 04/01/2019 14:26:20 -78.62, 161.76 105.49 04/01/2019 14:25:27 -78.61, 161.91 105.50 3.45 53
9 04/01/2019 15:15:46 78.60, -30.69 74.48 04/01/2019 15:16:30 78.61, -30.82 74.49 2.89 44
10 04/03/2019 20:00:03 78.65,-101.52 73.71 04/03/2019 19:58:58 78.63,-101.50 73.67 2.66 65
11 04/03/2019 20:49:32 -78.59, 65.79 106.39 04/03/2019 20:49:55 -78.62, 65.84 106.35 3.18 23




NCC Satellite Simultaneous Nadir Overpasses (SNOs) Prediction Service
